Terminal Aerodrome Forecast
Issued by NWS Lake Charles, LA

Home | Current Version | Previous Version | Text Only | Print | Product List | Glossary On
Versions: 1 2 3 4 5 6 7 8 9 10 11 12 13 14 15 16 17 18 19 20
000
FTUS44 KLCH 232300
TAFARA
TAF
KARA 232325Z 2400/2424 19010KT P6SM SKC
     FM241200 33006KT P6SM SKC=

USA.gov is the U.S. government's official web portal to all federal, state and local government web resources and services.